#timestamp,LO_Frequency,Hit,StdDev 
1644134415.0,286047003.9,N
1644134415.9,286047003.9,N
1644134435.8,286047001.3,N
1644134455.6,286047001.6,N
1644134475.4,286047002.6,N
1644134495.3,286047002.7,N
1644134515.1,286047001.8,N
1644134535.8,286047001.7,N
1644134555.7,286046999.7,N
1644134575.5,286047001.0,N
1644134595.4,286047001.1,N
1644134615.2,286046999.9,N
1644134635.0,286047000.0,N
1644134635.9,286047000.0,N
1644134655.8,286047000.1,N
1644134675.6,286047002.6,N
1644134695.4,286047000.2,N
1644134715.3,286047002.5,N
1644134735.1,286047001.4,N
1644134755.9,286047001.3,N
1644134775.7,286047004.0,N
1644134795.5,286047003.9,N
1644134815.4,286047001.9,N
1644134835.2,286047001.8,N
1644134855.1,286047003.8,N
1644134856.0,286047003.8,N
1644134875.8,286047003.2,N
1644134895.6,286047004.3,Y
1644134915.5,286047002.6,P
1644134935.3,286046999.8,N
1644134955.2,286047000.0,N
1644134975.9,286047000.4,N
1644134995.7,286047001.0,N
1644135015.6,286047000.5,N
1644135035.4,286047000.3,N
1644135055.2,286047002.7,N
1644135075.1,286047002.1,N
1644135076.0,286047002.1,N
1644135095.8,286047001.4,N
1644135115.7,286047001.7,N
1644135135.5,286047002.0,N
1644135155.3,286047001.9,N
1644135175.2,286047004.4,Y
1644135195.0,286047001.9,P
1644135195.9,286047011.9,P
1644135215.8,286047001.9,N
1644135235.6,286047003.3,N
1644135255.4,286047003.8,N
1644135275.3,286047004.2,N
1644135295.1,286047003.7,N
1644135315.8,286047003.6,N
1644135335.7,286047003.9,N
1644135355.5,286047003.9,N
1644135375.4,286047004.4,N
1644135395.2,286047001.8,N
1644135415.0,286047001.8,N
1644135415.9,286047001.8,N
1644135435.8,286047001.6,N
1644135455.6,286047001.9,N
1644135475.4,286046999.8,N
1644135495.3,286047002.8,N
1644135515.1,286047001.5,N
1644135535.9,286047002.0,N
1644135555.7,286047001.3,N
1644135575.5,286047004.2,N
1644135595.4,286047001.7,N
1644135615.2,286047003.9,N
1644135635.0,286047002.5,N
1644135636.0,286047002.5,N
1644135655.8,286047002.5,N
1644135675.6,286047001.8,N
1644135695.5,286047001.5,N
1644135715.3,286047001.9,N
1644135735.2,286047004.4,N
1644135755.0,286047002.4,N
1644135755.9,286047002.4,N
1644135775.8,286047002.5,N
1644135795.6,286047002.4,N
1644135815.4,286047002.3,N
1644135835.3,286047002.1,N
1644135855.1,286047000.1,N
1644135875.8,286047000.3,N
1644135895.5,286047000.5,N
1644135915.3,286047000.7,N
1644135935.2,286046999.8,N
1644135955.9,286047002.6,N
1644135975.7,286047002.4,N
1644135995.6,286046999.8,N
1644136015.4,286047001.9,N
1644136035.2,286047001.9,N
1644136055.1,286047002.1,N
1644136056.0,286047002.1,N
1644136075.8,286046999.8,N
1644136095.7,286047002.4,N
1644136115.5,286047002.2,N
1644136135.3,286047002.3,N
1644136155.2,286047001.6,N
1644136175.0,286047004.3,Y
1644136175.9,286047004.3,P
1644136195.8,286047000.6,N
1644136215.6,286047000.3,N
1644136235.4,286047001.5,N
1644136255.3,286047002.7,N
1644136275.1,286047000.5,N
1644136295.8,286047001.2,N
1644136315.7,286047001.2,N
1644136335.5,286047000.8,N
1644136355.4,286047000.7,N
1644136375.2,286047002.7,N
1644136395.0,286047002.3,N
1644136395.9,286047002.3,N
1644136415.8,286047002.8,N
1644136435.6,286047001.7,N
1644136455.5,286047002.3,N
1644136475.3,286047002.2,N
1644136495.1,286047002.7,N
1644136515.9,286047002.6,N
1644136535.7,286047000.3,N
1644136555.5,286046999.8,N
1644136575.4,286047000.1,N
1644136595.2,286046999.9,N
1644136615.1,286047002.8,N
1644136616.0,286047002.8,N
1644136635.8,286047002.4,N
1644136655.6,286046999.7,N
1644136675.5,286047001.9,N
1644136695.3,286047002.1,N
1644136715.1,286047001.8,N
1644136735.9,286047002.1,N
1644136755.7,286047002.3,N
1644136775.6,286047002.6,N
1644136795.4,286047000.2,N
1644136815.2,286047001.8,N
1644136835.1,286047001.4,N
1644136836.0,286047001.4,N
1644136855.8,286047002.0,N
1644136875.6,286047001.9,N
1644136895.5,286047002.1,N
1644136915.3,286047001.5,N
1644136935.2,286047004.4,Y
1644136955.0,286047002.5,P
1644136955.9,286047002.5,P
1644136975.7,286047000.3,N
1644136995.6,286047000.9,N
1644137015.4,286047000.5,N
1644137035.3,286047000.4,N
1644137055.1,286047000.8,N
1644137056.0,286047000.8,N
1644137075.8,286046998.3,N
1644137095.7,286046999.1,N
1644137115.5,286046999.3,N
1644137135.3,286047000.8,N
1644137155.2,286046998.6,N
1644137175.0,286046998.8,N
1644137175.9,286046998.8,N
1644137195.8,286047000.4,N
1644137215.6,286047000.5,N
1644137235.4,286046998.4,N
1644137255.3,286046999.2,N
1644137275.1,286046999.5,N
1644137295.9,286046995.4,Y
1644137315.7,286046997.5,P
1644137335.5,286046997.8,N
1644137355.4,286046996.8,N
1644137375.2,286046999.6,N
1644137395.0,286046999.3,N
1644137396.0,286046999.3,N
1644137415.8,286046999.1,N
1644137435.6,286046999.5,N
1644137455.5,286046996.9,N
1644137475.3,286046996.9,N
1644137495.1,286046996.5,N
1644137515.9,286046998.2,N
1644137535.7,286046998.8,N
1644137555.6,286046996.9,N
1644137575.4,286046999.4,N
1644137595.2,286046998.7,N
1644137615.1,286046999.4,N
1644137616.0,286046999.4,N
1644137635.8,286046998.8,N
1644137655.6,286046997.1,N
1644137675.5,286046997.3,N
1644137695.3,286046996.7,N
1644137715.2,286046997.1,N
1644137735.9,286046996.8,N
1644137755.7,286046996.9,N
1644137775.6,286046997.1,N
1644137795.4,286046996.7,N
1644137815.2,286046997.4,N
1644137835.1,286046996.7,N
1644137836.0,286046996.7,N
1644137855.8,286046997.9,N
1644137875.7,286046997.3,N
1644137895.5,286046996.8,N
1644137915.3,286046999.4,N
1644137935.2,286046999.4,N
1644137955.0,286046997.3,N
1644137955.9,286046997.3,N
1644137975.8,286046995.0,Y
1644137995.6,286046999.1,P
